{"data":{"norad_id":67258,"intl_designator":"2025-313L","name":"SITRO-AIS-58","alt_names":[],"object_type":"PAYLOAD","status":"ACTIVE","operator":null,"country":"CIS","launch_date":"2025-12-28","launch_site_code":"VOSTO","launch_vehicle":null,"mission":null,"orbit_class":"UNKNOWN","rcs_meters":null,"size_class":null,"mass_kg":null,"dimensions":null,"purposes":[],"wikipedia_slug":null,"has_3d_model":false,"image_url":null,"decayed_at":null,"tle_current":{"epoch":"2026-05-25T03:29:31.931808Z","epoch_age_seconds":59145,"freshness":"FRESH","line1":"1 67258U 25313L   26145.14550847  .00009011  00000+0  38764-3 0  9995","line2":"2 67258  97.3933 220.1102 0017054  86.9698 273.3490 15.22726705 22442","mean_motion":15.22726705,"eccentricity":0.0017054,"inclination_deg":97.3933,"raan_deg":220.1102,"arg_perigee_deg":86.9698,"mean_anomaly_deg":273.349,"bstar":0.00038764,"rev_number":2244,"period_min":94.567199437144,"perigee_km":485.89427609311,"apogee_km":509.34610872498,"semimajor_km":6875.757192409,"source":"CELESTRAK","updated_at":"2026-05-25T13:38:06.846511Z"}}}